Home > Weather > Aklavik > Past weeks

Flag for Canada Past Weather in Aklavik, Northwest Territories, Canada — Yesterday and Last 2 Weeks

Now
61 °F

Scattered clouds.


Feels Like: 61 °F
Forecast: 44 / 62 °F
Wind: 5 mph from South

Location: Inuvik

Current Time: May 30, 2016 at 10:10:38 PM

Latest Report: May 30, 2016 at 9:00 PM


Visibility: 15 mi

Pressure: 30.15 "Hg

Humidity: 27%

Dew Point: 27 °F

Location of AklavikLocation

Past Weather in Aklavik — Graph

°F

Aklavik Temperature Yesterday

Maximum temperature yesterday: 52 °F (at 6:00 PM)
Minimum temperature yesterday: 28 °F (at 6:00 AM)
Average temperature yesterday: 38 °F

High & Low Weather Summary for the Past Weeks

 TemperatureHumidityPressure
High70 °F (May 21, 4:00 PM)100% (May 23, 3:00 AM)30.49 "Hg (May 23, 3:00 AM)
Low27 °F (May 18, 5:00 AM)23% (May 19, 9:00 PM)29.67 "Hg (May 21, 9:00 PM)
Average43 °F65%30.16 "Hg
* Reported May 15 8:00 PM — May 30 8:00 PM, Aklavik, Weather by CustomWeather, © 2016

Note: Actual official high and low records may vary slightly from our data, if they occured in-between our weather recording intervals... More about our weather records

Advertising

Aklavik Weather History for the Previous 24 Hours

Scroll right to see more
 ConditionsComfort  
Time TempWeatherWind HumidityBarometerVisibility
8:00 PM
Mon, May 30
61 °FPartly sunny.3 mph29%30.17 "Hg15 mi
7:00 PM61 °FPassing clouds.6 mph29%30.19 "Hg15 mi
6:00 PM59 °FScattered clouds.2 mph31%30.21 "Hg15 mi
5:00 PM59 °FPartly sunny.7 mph31%30.23 "Hg15 mi
4:00 PM61 °FPartly sunny.6 mph31%30.24 "Hg15 mi
3:00 PM57 °FPassing clouds.3 mph33%30.27 "Hg15 mi
2:00 PM59 °FPassing clouds.8 mph31%30.29 "Hg15 mi
1:00 PM57 °FPassing clouds.6 mph33%30.30 "Hg15 mi
12:00 PM54 °FPassing clouds.3 mph44%30.33 "Hg15 mi
11:00 AM52 °FPassing clouds.5 mph44%30.34 "Hg15 mi
10:00 AM46 °FPassing clouds.2 mph53%30.35 "Hg15 mi
9:00 AM41 °FPassing clouds.3 mph66%30.36 "Hg15 mi
8:00 AM37 °FPassing clouds.6 mph70%30.37 "Hg15 mi
7:00 AM36 °FPassing clouds.5 mph75%30.38 "Hg15 mi
6:00 AM36 °FPassing clouds.6 mph75%30.39 "Hg15 mi
5:00 AM34 °FPassing clouds.5 mph81%30.40 "Hg15 mi
4:00 AM34 °FPassing clouds.5 mph81%30.40 "Hg15 mi
3:00 AM36 °FScattered clouds.7 mph75%30.40 "Hg15 mi
2:00 AM37 °FScattered clouds.9 mph70%30.41 "Hg15 mi
1:00 AM37 °FPassing clouds.12 mph70%30.41 "Hg15 mi
12:00 AM39 °FPassing clouds.12 mph65%30.41 "Hg15 mi
11:00 PM
Sun, May 29
43 °FPassing clouds.15 mph61%30.41 "Hg15 mi
10:00 PM46 °FPassing clouds.14 mph53%30.41 "Hg15 mi
Weather by CustomWeather, © 2016

See weather overviewHow to use our weather pages